Other Public Products
Issued by NWS Grand Forks, ND

Home | Current Version | Previous Version | Graphics & Text | Print | Product List | Glossary On
Versions: 1 2 3 4 5 6 7 8 9 10 11 12 13 14 15 16 17 18 19 20 21 22 23 24 25 26 27 28 29 30 31 32 33 34 35 36 37 38 39 40 41 42 43 44 45 46 47 48 49 50
094
FPUS83 KFGF 250231
OPUFGF
PRAIRIE TO PINES WEATHER ROUNDUP
NATIONAL WEATHER SERVICE EASTERN NORTH DAKOTA/GRAND FORKS ND
800 PM CST FRI NOV 24 2017

 **SATELLITE DATA USED TO AUGMENT SKY COVER AT AUTOMATED STATIONS**
 *****  WEATHER ACROSS EASTERN NORTH DAKOTA  *****

CITY           SKY/WX    TMP DP  RH WIND       PRES   REMARKS
GRAND FORKS    FAIR      38  33  82 NW13      29.71R
GRND FORKS AFB FAIR      38  32  78 NW14      29.72R
GRND FORKS NWS   N/A     36 N/A N/A NW6         N/A
BUXTON           N/A     37  34  89 W10         N/A
DEVILS LAKE    FAIR      36  31  82 W13       29.75R
FARGO          FAIR      42  34  73 NW21      29.72R
WAHPETON ARPT  NOT AVBL
$$

 *****  WEATHER ACROSS CENTRAL AND WESTERN NORTH DAKOTA  *****

CITY           SKY/WX    TMP DP  RH WIND       PRES   REMARKS
JAMESTOWN      FAIR      37  31  78 W10       29.78R
BISMARCK       FAIR      43  31  62 W7        29.85R
MINOT          FAIR      39  30  70 W14       29.79R
MINOT AFB      FAIR      35  29  80 NW10      29.78R
GARRISON         N/A     36  30  79 NW9       29.82R
WILLISTON      FAIR      38  30  73 W13       29.84R
DICKINSON      FAIR      36  28  73 W13       29.86R
HETTINGER      FAIR      28  24  85 W3        29.92R
$$

 *****  OTHER OBSERVATIONS NORTHEAST NORTH DAKOTA  *****

CITY           SKY/WX    TMP DP  RH WIND       PRES   REMARKS
WALHALLA       FAIR      28  28 100 N13       29.74R WCI  18
LANGDON        FAIR      32  32 100 NW15      29.72R WCI  22
CAVALIER       MOCLDY    30  25  80 N14       29.74R WCI  20
GRAFTON        FAIR      32  30  93 N10G17    29.75R WCI  24
CANDO          FAIR      32  32 100 NW9       29.78R WCI  24
FORT TOTTEN      N/A     37  31  80 NW7       29.95S
ROLLA          FAIR      36  28  75 NW20G26   29.74R
RUGBY          FAIR      34  32  93 NW14      29.77R WCI  24
 ***** THE ABOVE OBSERVATIONS ARE NON NWS ARE NOT QUALITY
        CONTROLLED AND MAY MIS-REPORT RAIN FOR SNOW...
$$

 *****  OTHER OBSERVATIONS SOUTHEAST NORTH DAKOTA *****

CITY           SKY/WX    TMP DP  RH WIND       PRES   REMARKS
COOPERSTOWN    FAIR      36  32  87 W15       29.76R
VALLEY CITY    FAIR      37  34  87 W13       29.78R
OAKES            N/A     37  32  81 NW10      29.82R
GWINNER          N/A     41  34  75 W13       29.80R
SHEYENNE NWR     N/A     43  34  70 NW14      29.95S
BUFFALO          N/A     39  29  68 W17         N/A
WYNDMERE       NOT AVBL
 ***** THE ABOVE OBSERVATIONS ARE NON NWS ARE NOT QUALITY
       CONTROLLED AND MAY MIS-REPORT RAIN FOR SNOW...
$$

  *****  WEATHER ACROSS NORTHERN MINNESOTA  *****

CITY           SKY/WX    TMP DP  RH WIND       PRES   REMARKS
FLAG ISLAND    CLOUDY    28  18  64 NW33G40   29.62R WCI  12
WARROAD        CLOUDY    32  25  74 NW17G24   29.64R WCI  21
ROSEAU         CLOUDY    34  27  75 NW20G26   29.65R WCI  22
HALLOCK        CLOUDY    32  27  80 N17G24    29.71R WCI  21
THF RVR FALLS  FAIR      36  30  79 NW15      29.68R
HALSTAD          N/A     37  32  82 NW12        N/A
FOSSTON        FAIR      34  30  86 NW14      29.68R WCI  24
BAUDETTE       CLOUDY    33  26  75 NW21G33   29.57R WCI  21
WASKISH        CLOUDY    37  32  81 W14G22    29.59R
CROOKSTON      FAIR      36  30  80 NW14      29.71R
$$
  *****  WEATHER ACROSS CENTRAL AND WEST MINNESOTA  *****

CITY           SKY/WX    TMP DP  RH WIND       PRES   REMARKS
BEMIDJI        MOCLDY    36  31  81 NW17G29   29.63R
PARK RAPIDS    FAIR      38  33  82 NW17      29.63R
WADENA         FAIR      37  32  81 NW9       29.68R
DETROIT LAKES  FAIR      37  34  87 NW10      29.70R
MOORHEAD       FAIR      41  32  70 NW21      29.73R
FERGUS FALLS   FAIR      36  30  80 W9        29.75R
ELBOW LAKE     FAIR      35  32  90 NW8       29.73R
MORRIS MN      MOCLDY    39  34  81 W9        29.74
STAPLES        FAIR      34  30  86 W9        29.67R
WHEATON        FAIR      45  34  65 W18G26    29.77R
$$
  *****  WEATHER ELSEWHERE ACROSS MINNESOTA  *****

CITY           SKY/WX    TMP DP  RH WIND       PRES   REMARKS
DULUTH         CLOUDY    38  35  89 W13       29.52R
INTRNTL FALLS  LGT RAIN  35  29  78 NW15      29.53R
ELY            CLOUDY    37  27  65 NW12G17   29.49R
CLOQUET        CLOUDY    37  34  87 W13G20    29.56R
BRAINERD       FAIR      40  32  73 W9        29.64R
HIBBING        FAIR      37  31  78 W9G18     29.53R
ALEXANDRIA     MOCLDY    40  33  76 W10       29.71R
SAINT CLOUD    FAIR      41  33  73 W15       29.67R
MINNEAPOLIS    FAIR      45  37  73 NW13      29.66R
$$

  *****  WEATHER ACROSS SOUTH DAKOTA  *****

CITY           SKY/WX    TMP DP  RH WIND       PRES   REMARKS
SIOUX FALLS    FAIR      41  33  73 NW8       29.82R
BROOKINGS      FAIR      38  32  79 NW10      29.81R
WATERTOWN      FAIR      40  34  79 NW13      29.80R
HURON          FAIR      36  31  82 W12       29.85R
SISSETON         N/A     47  35  63 NW23G30   29.76R
ABERDEEN       FAIR      42  34  73 W12       29.84R
MITCHELL       FAIR      44  32  62 W12       29.86R
PIERRE         FAIR      42  35  76 NW10      29.90R
MOBRIDGE       FAIR      37  29  72 N8        29.86R
RAPID CITY     FAIR      41  27  57 N14       29.96R
$$

  *****  SOME WEATHER IN NEARBY STATES *****

CITY           SKY/WX    TMP DP  RH WIND       PRES   REMARKS
GLASGOW MT     FAIR      37  27  67 W12       29.87R
GREAT FALLS MT FAIR      37  21  52 SW15      29.95R
CHEYENNE WY    FAIR      38  33  82 W3        30.03R
SCOTTSBLUFF NE FAIR      38  20  48 W5        29.99R
OMAHA NE       FAIR      52  37  56 N12       29.84R
DES MOINES IA  FAIR      55  41  59 NW16G23   29.74R
DAVENPORT IA   FAIR      51  41  68 W12       29.60R
CHICAGO IL     MOCLDY    55  40  56 SW18      29.49R
EAU CLAIRE WI  MOCLDY    42  40  92 W6        29.60R
LA CROSSE WI   FAIR      49  44  83 NW13      29.57R
$$

  *****  SOME NATIONAL WEATHER *****

CITY           SKY/WX    TMP DP  RH WIND       PRES   REMARKS
LA GUARDIA NY  FAIR      47  30  51 SW8       29.96F
RALEIGH NC     FAIR      34  26  72 CALM      29.98S
ATLANTA GA     FAIR      52  44  74 S3        29.98R
NEW ORLEANS LA FAIR      54  42  64 S3        29.98S
OKLAHOMA CITY  MOCLDY    61  36  39 S9        29.77R
ALBUQUERQUE NM FAIR      56  23  27 E3        30.04R
SALT LAKE CITY MOCLDY    52  40  63 CALM      30.10S
LOS ANGELES CA FAIR      72  54  53 VRB3      29.86R
BOISE ID       FAIR      41  30  65 SE5       30.13R
SEATTLE WA     CLOUDY    50  43  77 S13       30.07S
$$

*** WEATHER ACROSS MANITOBA...SASKATCHEWAN AND ONTARIO ***
                ***ONTARIO***

CITY           SKY/WX    TMP DP  RH WIND       PRES   REMARKS
GERALDTON      FLURRIES  32  30  93 W6        29.28R
THUNDER BAY    CLOUDY    39  28  65 W13G18    29.38R
SIOUX LOOKOUT  FLURRIES  27  19  74 NW17G25   29.44  WCI  14
TORONTO        MOCLDY    50  27  40 S12G20    29.60F
BIG TROUT LK   FLURRIES   7   3  85 NW10G18   29.43R WCI  -8
PICKLE LAKE    FLURRIES  16  12  86 NW10G20   29.38R WCI   3
DRYDEN         MOCLDY    27  18  69 NW18G29   29.47R WCI  13
KENORA         FLURRIES  23  16  74 NW16G32   29.57R WCI  10
$$
                *** MANITOBA***

CITY           SKY/WX    TMP DP  RH WIND       PRES   REMARKS
BRANDON        PTCLDY    28  21  74 NW17G24   29.76R WCI  16
DAUPHIN        CLEAR     18  12  79 NW3       29.81R
ISLAND LAKE    FLURRIES   5   0  78 N18       29.66R WCI -15
PILOT MOUND      N/A     32  27  80 NW15G21     N/A  WCI  22
THE PAS        CLEAR      5  -2  72 NW8       29.81R WCI  -8
THOMPSON       MOCLDY     0  -6  78 W8        29.70R WCI -15
WINNIPEG       MOCLDY    23  14  68 N22G29    29.74R WCI   8
LYNN LAKE      CLEAR     -4  -8  84 NW5       29.70S WCI -15
CHURCHILL      FLURRIES   9   5  85 NW20      29.57R WCI -11
GILLAM         CLOUDY    -2  -6  84 W8        29.65  WCI -17
$$
                ***SASKATCHEWAN***

CITY           SKY/WX    TMP DP  RH WIND       PRES   REMARKS
ESTEVAN        CLEAR     28  27  93 NW7       29.81R WCI  21
KINDERSLEY     PTCLDY    25  23  93 S6        29.80R WCI  18
LLOYDMINSTER   PTCLDY    25  23  93 W8        29.76R WCI  16
PRINCE ALBERT  CLOUDY    21  12  68 W5        29.81R WCI  15
REGINA         PTCLDY    30  28  93 W8        29.80R WCI  23
YORKTON        MOCLDY    19  14  79 N8        29.78R WC



USA.gov is the U.S. government's official web portal to all federal, state and local government web resources and services.